User: anonymous   Login
Location: Unspecified
(0.0000°N, 0.0000°E)
Time: 00:44:21
(UTC+00:00)
Language:

EGRS 7 - Orbit

View from above orbital plane
View from above orbital plane
View from above satellite
View from above satellite

Ground track
Ground track

The orbit data is extracted from the following two-line orbital elements,

1  2411U 66077B   18265.36249243 +.00000010 +00000-0 +42747-2 0  9996
2  2411 090.2067 248.4679 0025211 012.3971 347.7497 08.59618380634741
Epoch (UTC): 22 September 2018 08:41:59
Eccentricity: 0.0025211
inclination: 90.2067°
perigee height: 3662 km
apogee height: 3713 km
right ascension of ascending node: 248.4679°
argument of perigee: 12.3971°
revolutions per day: 8.59618380
mean anomaly at epoch: 347.7497°
orbit number at epoch: 63474

The dashed part of the orbit path shows where the satellite is in the earth's shadow,  

DLR